EW5705 Weather Reports


time (UTC)temp
C
wind
direction
speed
KPH
gust
KPH
rain 1hr
cm
rain 24hr
cm
rain mn
cm
humidity
%
barometer
mb
20260505070104 7 253 12.9 22.5 0.00 0.61 0.00 82 1007.9
20260505064608 7 355 14.5 25.7 0.00 0.69 0.00 82 1007.5
20260505063054 7 355 12.9 24.1 0.00 0.69 0.00 81 1007.2
20260505061551 7 224 11.3 20.9 0.00 0.69 0.00 81 1007.0
20260505060047 7 355 11.3 20.9 0.00 0.69 0.00 81 1006.5
20260505054613 8 199 8.0 17.7 0.00 0.71 0.00 80 1006.3
20260505053048 8 250 9.7 22.5 0.00 0.71 0.00 80 1006.0
20260505051543 8 182 8.0 24.1 0.00 0.71 0.00 80 1005.5
20260505041544 8 355 14.5 29.0 0.00 0.71 0.00 80 1004.9
20260505040029 8 355 8.0 20.9 0.00 0.71 0.00 80 1004.6
20260505034527 8 247 9.7 24.1 0.00 0.71 0.00 80 1004.6
20260505033026 8 355 11.3 19.3 0.00 0.71 0.00 81 1004.4
20260505031529 8 355 11.3 27.4 0.00 0.71 0.00 81 1004.2
20260505030018 8 214 12.9 22.5 0.00 0.71 0.00 81 1004.1
20260505024516 8 221 17.7 30.6 0.00 0.76 0.71 78 1004.0
20260505023016 9 195 14.5 30.6 0.00 0.76 0.71 74 1003.6
20260505021517 10 187 9.7 24.1 0.00 0.76 0.71 71 1003.4
20260505020012 10 355 11.3 25.7 0.00 0.76 0.71 69 1003.4
20260505014516 10 355 11.3 20.9 0.00 1.04 0.71 68 1003.1
20260505013010 10 201 11.3 17.7 0.00 1.04 0.71 67 1002.9
20260505011512 9 207 11.3 22.5 0.00 1.04 0.71 66 1002.9
20260505010014 10 355 11.3 27.4 0.00 1.04 0.71 63 1002.8
20260505004506 10 355 11.3 20.9 0.00 1.50 0.71 61 1002.6
20260505003005 10 206 17.7 32.2 0.00 1.50 0.71 59 1002.4
20260505001504 10 218 12.9 24.1 0.00 1.50 0.71 59 1002.3
20260505000002 10 355 12.9 30.6 0.00 1.50 0.71 60 1002.1
20260504234600 9 198 14.5 24.1 0.00 2.11 0.71 60 1001.8
20260504233108 10 238 0.0 14.5 0.00 2.11 0.71 61 1001.5
20260504231557 10 231 8.0 29.0 0.00 2.11 0.71 54 1001.4
20260504230113 10 205 14.5 29.0 0.00 2.11 0.71 53 1001.2
20260504224616 11 227 19.3 35.4 0.00 2.54 0.71 52 1000.9
20260504223053 10 355 17.7 29.0 0.00 2.54 0.71 54 1000.9
20260504221551 11 355 14.5 32.2 0.00 2.54 0.71 53 1000.6
20260504220056 11 183 20.9 40.2 0.00 2.54 0.71 53 1000.5
20260504214548 11 256 17.7 37.0 0.00 3.15 0.71 55 1000.3
20260504213045 11 355 17.7 32.2 0.00 3.15 0.71 56 1000.2
20260504211543 11 237 17.7 40.2 0.00 3.15 0.71 60 1000.2
20260504210055 11 198 24.1 35.4 0.00 3.15 0.71 61 999.9
20260504204546 11 355 19.3 46.7 0.00 3.20 0.71 62 999.8
20260504203042 11 203 17.7 40.2 0.00 3.20 0.71 64 999.5
20260504201532 11 355 19.3 40.2 0.00 3.20 0.71 67 999.3
20260504200035 10 207 16.1 40.2 0.00 3.20 0.71 70 999.0
20260504194525 10 355 19.3 40.2 0.00 3.45 0.71 73 998.8
20260504193022 9 191 19.3 35.4 0.00 3.45 0.71 75 998.4
20260504191521 9 355 24.1 40.2 0.00 3.45 0.71 77 998.4
20260504190018 9 210 19.3 45.1 0.00 3.45 0.71 77 997.9
20260504184525 9 218 12.9 40.2 0.00 3.45 0.71 79 997.8
20260504183022 8 202 20.9 40.2 0.00 3.45 0.71 80 997.7
20260504181510 8 203 19.3 33.8 0.00 3.45 0.71 81 997.5
20260504180008 8 221 14.5 29.0 0.00 3.45 0.71 81 997.4
20260504174505 7 355 19.3 35.4 0.00 3.45 0.71 82 997.0
20260504173002 7 216 11.3 30.6 0.00 3.45 0.71 82 996.9
20260504171600 7 355 12.9 38.6 0.00 3.45 0.71 82 996.2
20260504081543 3 200 12.9 25.7 0.03 2.90 0.18 93 976.3